This demonstration page uses our WeatherBlox Daily Observations layout. Learn more.

Left ArrowRight Arrow

38.20091, -84.87328

Hourly Observations for June 5, 2023

Temp ( °F °C ) Dew Point ( °F °C ) Humidity (%) Winds ( mph kmh ) Pressure ( in mb ) Visibility ( mi km ) Precip ( " mm )
12:53 am 00:53 undefined N/A N/A N/A undefined N/A 29.98 1015 N/A 0.00 0.00
1:53 am 01:53 undefined N/A N/A N/A undefined N/A 29.97 1015 N/A 0.00 0.00
2:53 am 02:53 undefined N/A N/A N/A undefined N/A 29.97 1015 N/A 0.00 0.00
3:53 am 03:53 undefined N/A N/A N/A undefined N/A 29.98 1015 N/A 0.00 0.00
4:53 am 04:53 undefined N/A N/A N/A undefined N/A 29.99 1016 N/A 0.00 0.00
5:53 am 05:53 undefined N/A N/A N/A undefined N/A 30.00 1016 N/A 0.00 0.00
6:53 am 06:53 undefined N/A N/A N/A undefined N/A 30.00 1016 N/A 0.00 0.00
7:53 am 07:53 undefined N/A N/A N/A undefined N/A 30.01 1016 N/A 0.00 0.00
8:53 am 08:53 undefined N/A N/A N/A undefined N/A 30.02 1017 N/A 0.00 0.00
9:53 am 09:53 Sunny 73 22.8 59 15 61 61 VRB 3 6 29.96 1015 10 16 0.00 0.00
10:53 am 10:53 Sunny 77 25 60 15.6 56 56 Calm 29.96 1014 10 16 0.00 0.00
11:53 am 11:53 Sunny 82 27.8 61 16.1 49 49 ENE 7 11 29.93 1014 10 16 0.00 0.00
12:53 pm 12:53 Sunny 83 28.3 59 15 44 44 VRB 5 7 29.92 1013 10 16 0.00 0.00
1:53 pm 13:53 Mostly Sunny 86 30 54 12.2 33 33 ENE 9 15 29.90 1013 10 16 0.00 0.00
2:53 pm 14:53 Sunny 85 29.4 54 12.2 35 35 VRB 3 6 29.90 1012 9 14 0.00 0.00
3:53 pm 15:53 Sunny 83 28.3 55 12.8 38 38 N 10 17 29.91 1013 10 16 0.00 0.00
4:53 pm 16:53 undefined 82 27.8 55 12.8 40 40 undefined N/A 29.91 1013 N/A 0.00 0.00
5:53 pm 17:53 undefined N/A N/A N/A undefined N/A 29.98 1015 N/A 0.00 0.00
6:53 pm 18:53 undefined N/A N/A N/A undefined N/A 29.98 1015 N/A 0.00 0.00
7:53 pm 19:53 undefined N/A N/A N/A undefined N/A 29.98 1015 N/A 0.00 0.00
8:53 pm 20:53 undefined N/A N/A N/A undefined N/A 29.98 1015 N/A 0.00 0.00
9:53 pm 21:53 undefined N/A N/A N/A undefined N/A 29.99 1016 N/A 0.00 0.00
10:53 pm 22:53 undefined N/A N/A N/A undefined N/A 30.00 1016 N/A 0.00 0.00
11:53 pm 23:53 undefined N/A N/A N/A undefined N/A 30.01 1016 N/A 0.00 0.00

Powered by Vaisala Xweather